Погода в Эльбургане

Россия / Карачаево-Черкесская Республика     44°04′45″N   41°47′53″E
темп.,
°C
ветер,
м/с
пор.,
м/с
влажн.,
%
обл.,
%
осадки,
мм/ч
давл.,
гПа
погр.,
м
2 июля, сб
сб200:00+14ююз339398 0.0 101362
03:00+14ююз3492100 0.0 101377
06:00+15зюз1188100 0.0 101328
09:00+18з136710 0.1 1013740
12:00+19ссз776532 0.3 10131533
15:00+19сз67567 0.7 10131863
18:00+16ссз46672 0.1 1016784
21:00+10юз22780 0.1 101814
3 июля, вс
вс300:00+8ююз45840 0.0 101954
03:00+7ю45880 0.0 101862
06:00+9ююз45830 0.0 1018110
09:00+15сз22620 0.0 10171030
12:00+18сз33570 0.0 10161360
15:00+19ссз345513 0.0 10151690
18:00+17с357117 0.1 1016441
21:00+13з017686 0.3 101810
4 июля, пн
пн400:00+11ююз33840 0.0 101825
03:00+9ю34904 0.0 101847
06:00+10ю35893 0.0 101899
09:00+17ююз22630 0.0 1017515
12:00+20с22490 0.0 10161687
15:00+21с225120 0.0 10151884
18:00+20ссв346816 0.0 1016278
21:00+13ююв11800 0.0 101711
5 июля, вт
вт500:00+11ю44880 0.0 101853
03:00+10ю45850 0.0 101858
06:00+11ю45810 0.0 101893
09:00+19ююз22640 0.0 1017383
12:00+22св23490 0.0 10161652
15:00+23всв44500 0.0 10151986
18:00+21св58690 0.0 1015427
21:00+15в22880 0.0 101712
6 июля, ср
ср600:00+12ю22930 0.0 101721
03:00+11ю22900 0.0 101717
06:00+12ююв22860 0.0 101752
09:00+19всв34670 0.0 1016762
12:00+22всв66590 0.0 10151280
15:00+22всв67590 0.0 10141244
18:00+21в57690 0.0 1013485
21:00+15ююв22860 0.0 101540